Content
SEND FEEDBACK

Daily
Averages
Monthly
Summary
United States of America

FORT WORTH - EAGLE MOUNTAIN LAKE, TEXAS


Home > North America > United States > Texas
Elevation: 660 feet     Latitude: 32 53N     Longitude: 097 28W

WEATHER
 
SELECT A DAY
Number of Records: 167,419;   Date Range: 1/1/95 - 8/30/14
 
SHARE

PRINT THIS DATA

[ ← Previous Day ]
WEATHER ALMANAC - JANUARY 23, 2013
[ Next Day → ]
[ °C ]   °F
Weather ElementAverageHighLow
Temperature60.5 °F71.6 °F (2:50 pm)53.6 °F (12:35 am)
Dewpoint49.5 °F53.6 °F (6:47 pm)44.6 °F (12:35 am)
Humidity68.1 %77 % (12:55 am)49 % (12:48 pm)
Barometer30.20 in30.28 in (10:48 am)30.14 in (6:47 pm)
Wind Speed7.7 mph13.8 mph (3:47 pm)
Wind Gust18.4 mph (9:47 am)
Weather ElementAverage
Visibility11.2 mi
Wind DirectionSSW (190.5 °)

Weather ElementTotal
Precipitation---
Heating Degree Days2.4 (Base 65)
Growing Degree Days12.6 (Base 50)
Averaged from 39 records on January 23, 2013
WEATHER CONDITIONS BREAKOUT
WIND DIRECTION BREAKOUT
WEATHER BY HOUR - JANUARY 23, 2013
[ °C ]   °F
Local TimeTemperatureDewpointHumidityBarometerVisibilityWind DirectionWind SpeedGust SpeedPrecipitationEventsConditions
12:35 AM53.6 °F44.6 °F72 %30.21 in10.0 miSSE (150°)5.8 mphClear
12:55 AM53.6 °F46.4 °F77 %30.21 in10.0 miSouth (170°)8.1 mphClear
1:15 AM55.4 °F46.4 °F72 %30.21 in10.0 miSouth (170°)6.9 mphClear
1:35 AM53.6 °F46.4 °F77 %30.21 in10.0 miSouth (170°)6.9 mphClear
1:55 AM55.4 °F46.4 °F72 %30.21 in10.0 miSouth (180°)6.9 mphClear
2:15 AM55.4 °F46.4 °F72 %30.21 in10.0 miSouth (190°)6.9 mphClear
2:35 AM55.4 °F46.4 °F72 %30.21 in10.0 miSSW (210°)6.9 mphClear
2:55 AM55.4 °F46.4 °F72 %30.22 in10.0 miSSW (210°)5.8 mphClear
3:15 AM55.4 °F46.4 °F72 %30.22 in10.0 miSSW (210°)5.8 mphClear
3:35 AM55.4 °F46.4 °F72 %30.22 in10.0 miSW (220°)3.5 mphClear
3:55 AM55.4 °F46.4 °F72 %30.22 in10.0 miSSW (210°)5.8 mphClear
4:15 AM53.6 °F46.4 °F77 %30.23 in10.0 miSSW (210°)5.8 mphClear
4:35 AM53.6 °F46.4 °F77 %30.23 in10.0 miSSW (210°)4.6 mphMostly Cloudy
4:55 AM53.6 °F46.4 °F77 %30.24 in10.0 miSSW (200°)5.8 mphOvercast
5:47 AM53.6 °F46.4 °F77 %30.23 in13.0 miSouth (180°)9.2 mphMostly Cloudy
6:47 AM53.6 °F46.4 °F77 %30.24 in13.0 miSouth (190°)8.1 mphScattered Clouds
7:47 AM53.6 °F46.4 °F77 %30.25 in13.0 miSouth (190°)6.9 mphPartly Cloudy
8:47 AM55.4 °F48.2 °F77 %30.25 in10.0 miSouth (190°)8.1 mphScattered Clouds
9:47 AM59.0 °F50.0 °F72 %30.26 in10.0 miSSW (200°)11.5 mph18.4 mphScattered Clouds
10:48 AM62.6 °F50.0 °F63 %30.28 in13.0 miSouth (190°)11.5 mph16.1 mphClear
11:47 AM66.2 °F51.8 °F60 %30.26 in15.0 miSSW (200°)8.1 mph16.1 mphClear
12:48 PM69.8 °F50.0 °F49 %30.23 in15.0 miWSW (250°)5.8 mphClear
1:47 PM69.8 °F50.0 °F49 %30.19 in13.0 miSSW (210°)9.2 mph16.1 mphClear
2:50 PM71.6 °F51.8 °F50 %30.17 in13.0 miSouth (190°)9.2 mph16.1 mphClear
3:47 PM71.6 °F51.8 °F50 %30.16 in13.0 miSouth (190°)13.8 mph18.4 mphScattered Clouds
4:47 PM71.6 °F51.8 °F50 %30.15 in13.0 miSouth (180°)12.7 mph18.4 mphScattered Clouds
5:48 PM69.8 °F51.8 °F53 %30.15 in13.0 miSouth (180°)9.2 mphScattered Clouds
6:47 PM68.0 °F53.6 °F60 %30.14 in13.0 miSSE (160°)9.2 mph16.1 mphClear
7:47 PM66.2 °F53.6 °F64 %30.14 in13.0 miSouth (170°)10.4 mph18.4 mphClear
9:15 PM64.4 °F51.8 °F64 %30.16 in10.0 miSouth (180°)8.1 mphClear
9:35 PM64.4 °F51.8 °F64 %30.16 in10.0 miSouth (180°)6.9 mphClear
9:47 PM64.4 °F53.6 °F68 %30.17 in13.0 miSSE (160°)13.8 mphClear
9:55 PM64.4 °F51.8 °F64 %30.16 in10.0 miSouth (180°)8.1 mphClear
10:15 PM64.4 °F53.6 °F68 %30.15 in10.0 miSouth (180°)8.1 mphClear
10:35 PM62.6 °F53.6 °F72 %30.16 in10.0 miSouth (190°)6.9 mphClear
10:55 PM62.6 °F53.6 °F72 %30.15 in10.0 miSouth (190°)5.8 mphClear
11:15 PM62.6 °F53.6 °F72 %30.15 in10.0 miSouth (190°)5.8 mphClear
11:35 PM62.6 °F53.6 °F72 %30.16 in10.0 miSSW (200°)3.5 mphClear
11:55 PM60.8 °F53.6 °F77 %30.15 in10.0 miSSW (200°)5.8 mphClear
Hourly data recorded from KADS, located miles away from Fort Worth - Eagle Mountain Lake, Texas







STORIES FROM OUR PARTNERS